| time (UTC) | temp F | wind direction | speed MPH | gust MPH | rain 1hr in | rain 24hr in | rain mn in | humidity % | barometer mb |
| 20260831005948 | 66 | 86 | 4.0 | 6.0 | 0.00 | 0.05 | 0.05 | 99 | 1025.8 |
| 20260831005444 | 66 | 43 | 4.0 | 6.0 | 0.00 | 0.05 | 0.05 | 99 | 1026.0 |
| 20260831004943 | 66 | 43 | 4.0 | 6.0 | 0.00 | 0.05 | 0.05 | 99 | 1026.0 |
| 20260831004440 | 67 | 70 | 7.0 | 11.0 | 0.00 | 0.05 | 0.05 | 99 | 1025.7 |
| 20260831003936 | 67 | 70 | 7.0 | 11.0 | 0.00 | 0.05 | 0.05 | 99 | 1025.7 |
| 20260831003431 | 68 | 52 | 7.0 | 9.0 | 0.00 | 0.05 | 0.05 | 99 | 1026.1 |
| 20260831002931 | 68 | 52 | 7.0 | 9.0 | 0.00 | 0.05 | 0.05 | 99 | 1026.1 |
| 20260831002430 | 68 | 85 | 13.0 | 14.0 | 0.00 | 0.05 | 0.05 | 99 | 1026.2 |
| 20260831001925 | 68 | 85 | 13.0 | 14.0 | 0.00 | 0.05 | 0.05 | 99 | 1026.2 |
| 20260831001420 | 68 | 62 | 8.0 | 13.0 | 0.00 | 0.05 | 0.05 | 99 | 1026.0 |
| 20260831000918 | 68 | 62 | 8.0 | 13.0 | 0.00 | 0.05 | 0.05 | 99 | 1026.0 |
| 20260831000413 | 68 | 54 | 15.0 | 18.0 | 0.00 | 0.05 | 0.05 | 99 | 1025.8 |
| 20260830235911 | 68 | 54 | 15.0 | 18.0 | 0.00 | 0.05 | 0.05 | 99 | 1025.8 |
| 20260830235406 | 68 | 63 | 11.0 | 16.0 | 0.00 | 0.05 | 0.05 | 99 | 1026.1 |
| 20260830234902 | 68 | 63 | 11.0 | 16.0 | 0.00 | 0.05 | 0.05 | 99 | 1026.1 |
| 20260830234357 | 69 | 86 | 11.0 | 15.0 | 0.00 | 0.05 | 0.05 | 99 | 1026.1 |
| 20260830233853 | 69 | 86 | 11.0 | 15.0 | 0.00 | 0.05 | 0.05 | 99 | 1026.1 |
| 20260830233348 | 69 | 358 | 3.0 | 3.0 | 0.00 | 0.05 | 0.05 | 99 | 1026.1 |
| 20260830232844 | 69 | 358 | 3.0 | 3.0 | 0.00 | 0.05 | 0.05 | 99 | 1026.1 |
| 20260830232339 | 69 | 78 | 6.0 | 8.0 | 0.00 | 0.05 | 0.05 | 99 | 1025.8 |
| 20260830231836 | 69 | 78 | 6.0 | 8.0 | 0.00 | 0.05 | 0.05 | 99 | 1025.8 |
| 20260830231336 | 69 | 105 | 14.0 | 16.0 | 0.00 | 0.05 | 0.05 | 99 | 1025.7 |
| 20260830230830 | 69 | 105 | 14.0 | 16.0 | 0.00 | 0.05 | 0.05 | 99 | 1025.7 |
| 20260830230325 | 67 | 170 | 6.0 | 8.0 | 0.00 | 0.05 | 0.05 | 99 | 1025.5 |
| 20260830225825 | 67 | 170 | 6.0 | 8.0 | 0.00 | 0.05 | 0.05 | 99 | 1025.5 |
| 20260830225321 | 65 | 119 | 1.0 | 1.0 | 0.00 | 0.05 | 0.05 | 99 | 1026.0 |
| 20260830224820 | 65 | 119 | 1.0 | 1.0 | 0.00 | 0.05 | 0.05 | 99 | 1026.0 |
| 20260830224315 | 65 | 47 | 3.0 | 4.0 | 0.00 | 0.05 | 0.05 | 99 | 1026.0 |
| 20260830223812 | 65 | 47 | 3.0 | 4.0 | 0.00 | 0.05 | 0.05 | 99 | 1026.0 |
| 20260830223308 | 64 | 81 | 11.0 | 16.0 | 0.00 | 0.05 | 0.05 | 99 | 1025.8 |
| 20260830222807 | 64 | 81 | 11.0 | 16.0 | 0.00 | 0.05 | 0.05 | 99 | 1025.8 |
| 20260830222306 | 64 | 127 | 8.0 | 9.0 | 0.00 | 0.05 | 0.05 | 99 | 1025.7 |
| 20260830221758 | 64 | 127 | 8.0 | 9.0 | 0.00 | 0.05 | 0.05 | 99 | 1025.7 |
| 20260830221255 | 64 | 68 | 11.0 | 14.0 | 0.00 | 0.05 | 0.05 | 99 | 1025.3 |
| 20260830220755 | 64 | 68 | 11.0 | 14.0 | 0.00 | 0.05 | 0.05 | 99 | 1025.3 |
| 20260830220255 | 63 | 134 | 23.0 | 29.0 | 0.00 | 0.05 | 0.05 | 99 | 1025.1 |
| 20260830215753 | 63 | 134 | 23.0 | 29.0 | 0.00 | 0.05 | 0.05 | 99 | 1025.1 |
| 20260830215248 | 63 | 97 | 19.0 | 23.0 | 0.00 | 0.05 | 0.05 | 99 | 1025.0 |
| 20260830214743 | 63 | 97 | 19.0 | 23.0 | 0.00 | 0.05 | 0.05 | 99 | 1025.0 |
| 20260830214243 | 63 | 79 | 21.0 | 25.0 | 0.00 | 0.05 | 0.05 | 99 | 1025.5 |
| 20260830213742 | 63 | 79 | 21.0 | 25.0 | 0.00 | 0.05 | 0.05 | 99 | 1025.5 |
| 20260830213237 | 62 | 42 | 8.0 | 10.0 | 0.00 | 0.05 | 0.05 | 99 | 1025.6 |
| 20260830212733 | 62 | 42 | 8.0 | 10.0 | 0.00 | 0.05 | 0.05 | 99 | 1025.6 |
| 20260830212229 | 61 | 72 | 16.0 | 23.0 | 0.00 | 0.05 | 0.05 | 99 | 1025.8 |
| 20260830211728 | 61 | 72 | 16.0 | 23.0 | 0.00 | 0.05 | 0.05 | 99 | 1025.8 |
| 20260830211227 | 62 | 73 | 11.0 | 14.0 | 0.00 | 0.05 | 0.05 | 99 | 1026.1 |
| 20260830210724 | 62 | 73 | 11.0 | 14.0 | 0.00 | 0.05 | 0.05 | 99 | 1026.1 |
| 20260830210223 | 61 | 64 | 20.0 | 23.0 | 0.00 | 0.05 | 0.05 | 99 | 1026.6 |
| 20260830205720 | 61 | 64 | 20.0 | 23.0 | 0.00 | 0.05 | 0.05 | 99 | 1026.6 |
| 20260830205215 | 61 | 73 | 13.0 | 15.0 | 0.00 | 0.05 | 0.05 | 99 | 1027.2 |
| 20260830204710 | 61 | 73 | 13.0 | 15.0 | 0.00 | 0.05 | 0.05 | 99 | 1027.2 |
| 20260830204209 | 62 | 69 | 15.0 | 22.0 | 0.00 | 0.05 | 0.05 | 99 | 1027.2 |
| 20260830203705 | 62 | 69 | 15.0 | 22.0 | 0.00 | 0.05 | 0.05 | 99 | 1027.2 |
| 20260830203201 | 62 | 57 | 15.0 | 17.0 | 0.00 | 0.05 | 0.05 | 99 | 1027.5 |
| 20260830202700 | 62 | 57 | 15.0 | 17.0 | 0.00 | 0.05 | 0.05 | 99 | 1027.5 |
| 20260830202155 | 62 | 82 | 20.0 | 23.0 | 0.00 | 0.05 | 0.05 | 99 | 1027.1 |
| 20260830201655 | 62 | 82 | 20.0 | 23.0 | 0.00 | 0.05 | 0.05 | 99 | 1027.1 |
| 20260830201150 | 63 | 345 | 4.0 | 6.0 | 0.00 | 0.05 | 0.05 | 99 | 1027.5 |
| 20260830200640 | 62 | 333 | 3.0 | 3.0 | 0.00 | 0.05 | 0.05 | 99 | 1027.1 |
| 20260830200139 | 62 | 333 | 3.0 | 3.0 | 0.00 | 0.05 | 0.05 | 99 | 1027.1 |
| 20260830195635 | 62 | 74 | 11.0 | 17.0 | 0.00 | 0.05 | 0.05 | 99 | 1026.8 |
| 20260830195133 | 62 | 74 | 11.0 | 17.0 | 0.00 | 0.05 | 0.05 | 99 | 1026.8 |
| 20260830194632 | 63 | 169 | 17.0 | 21.0 | 0.00 | 0.05 | 0.05 | 99 | 1025.8 |
| 20260830194131 | 63 | 169 | 17.0 | 21.0 | 0.00 | 0.05 | 0.05 | 99 | 1025.8 |
| 20260830193626 | 63 | 123 | 2.0 | 3.0 | 0.00 | 0.05 | 0.05 | 99 | 1025.8 |
| 20260830193121 | 63 | 123 | 2.0 | 3.0 | 0.00 | 0.05 | 0.05 | 99 | 1025.8 |
| 20260830192611 | 62 | 146 | 6.0 | 9.0 | 0.00 | 0.05 | 0.05 | 99 | 1025.6 |
| 20260830192105 | 62 | 146 | 6.0 | 9.0 | 0.00 | 0.05 | 0.05 | 99 | 1025.6 |
| 20260830191601 | 60 | 91 | 7.0 | 9.0 | 0.00 | 0.05 | 0.05 | 99 | 1025.6 |
| 20260830191056 | 60 | 91 | 7.0 | 9.0 | 0.00 | 0.05 | 0.05 | 99 | 1025.6 |
| 20260830190551 | 60 | 114 | 13.0 | 17.0 | 0.00 | 0.05 | 0.05 | 99 | 1025.5 |
| 20260830190046 | 60 | 114 | 13.0 | 17.0 | 0.00 | 0.05 | 0.05 | 99 | 1025.5 |
| 20260830185539 | 60 | 67 | 16.0 | 19.0 | 0.00 | 0.05 | 0.05 | 99 | 1025.7 |
| 20260830185035 | 60 | 67 | 16.0 | 19.0 | 0.00 | 0.05 | 0.05 | 99 | 1025.7 |
| 20260830184534 | 60 | 69 | 9.0 | 11.0 | 0.00 | 0.05 | 0.05 | 99 | 1026.5 |
| 20260830184029 | 60 | 69 | 9.0 | 11.0 | 0.00 | 0.05 | 0.05 | 99 | 1026.5 |
| 20260830183523 | 58 | 15 | 7.0 | 9.0 | 0.00 | 0.05 | 0.05 | 99 | 1027.1 |
| 20260830183019 | 58 | 15 | 7.0 | 9.0 | 0.00 | 0.05 | 0.05 | 99 | 1027.1 |
| 20260830182514 | 54 | 156 | 6.0 | 11.0 | 0.31 | 0.05 | 0.05 | 99 | 1027.0 |
| 20260830182010 | 54 | 156 | 6.0 | 11.0 | 0.31 | 0.05 | 0.05 | 99 | 1027.0 |
| 20260830181506 | 64 | 107 | 38.0 | 40.0 | 0.00 | 0.00 | 0.00 | 99 | 1026.5 |
| 20260830181005 | 64 | 107 | 38.0 | 40.0 | 0.00 | 0.00 | 0.00 | 99 | 1026.5 |
| 20260830180459 | 66 | 146 | 4.0 | 4.0 | 0.00 | 0.00 | 0.00 | 99 | 1026.0 |
| 20260830175952 | 66 | 146 | 4.0 | 4.0 | 0.00 | 0.00 | 0.00 | 99 | 1026.0 |
| 20260830175452 | 67 | 153 | 2.0 | 2.0 | 0.00 | 0.00 | 0.00 | 99 | 1025.8 |
| 20260830174942 | 67 | 153 | 2.0 | 2.0 | 0.00 | 0.00 | 0.00 | 99 | 1025.8 |
| 20260830174438 | 66 | 156 | 4.0 | 4.0 | 0.00 | 0.00 | 0.00 | 99 | 1026.0 |
| 20260830173933 | 66 | 156 | 4.0 | 4.0 | 0.00 | 0.00 | 0.00 | 99 | 1026.0 |
| 20260830173429 | 66 | 122 | 0.0 | 0.0 | 0.00 | 0.00 | 0.00 | 99 | 1026.0 |
| 20260830172924 | 66 | 122 | 0.0 | 0.0 | 0.00 | 0.00 | 0.00 | 99 | 1026.0 |
| 20260830172421 | 66 | 111 | 1.0 | 2.0 | 0.00 | 0.00 | 0.00 | 99 | 1026.2 |
| 20260830171916 | 66 | 111 | 1.0 | 2.0 | 0.00 | 0.00 | 0.00 | 99 | 1026.2 |
| 20260830171411 | 67 | 4 | 3.0 | 3.0 | 0.00 | 0.00 | 0.00 | 99 | 1026.1 |
| 20260830170906 | 67 | 4 | 3.0 | 3.0 | 0.00 | 0.00 | 0.00 | 99 | 1026.1 |
| 20260830170405 | 67 | 59 | 1.0 | 1.0 | 0.00 | 0.00 | 0.00 | 99 | 1026.1 |
| 20260830165903 | 67 | 59 | 1.0 | 1.0 | 0.00 | 0.00 | 0.00 | 99 | 1026.1 |
| 20260830165400 | 65 | 331 | 4.0 | 4.0 | 0.00 | 0.00 | 0.00 | 99 | 1026.2 |
| 20260830164856 | 65 | 331 | 4.0 | 4.0 | 0.00 | 0.00 | 0.00 | 99 | 1026.2 |
| 20260830164352 | 66 | 83 | 1.0 | 2.0 | 0.00 | 0.00 | 0.00 | 99 | 1026.1 |
| 20260830163848 | 66 | 83 | 1.0 | 2.0 | 0.00 | 0.00 | 0.00 | 99 | 1026.1 |
| 20260830163343 | 65 | 114 | 0.0 | 1.0 | 0.00 | 0.00 | 0.00 | 99 | 1026.1 |
| 20260830162838 | 65 | 114 | 0.0 | 1.0 | 0.00 | 0.00 | 0.00 | 99 | 1026.1 |
| 20260830162334 | 63 | 129 | 2.0 | 3.0 | 0.00 | 0.00 | 0.00 | 99 | 1026.3 |
| 20260830161834 | 63 | 129 | 2.0 | 3.0 | 0.00 | 0.00 | 0.00 | 99 | 1026.3 |
| 20260830161333 | 63 | 99 | 1.0 | 2.0 | 0.00 | 0.00 | 0.00 | 99 | 1026.3 |
| 20260830160829 | 63 | 99 | 1.0 | 2.0 | 0.00 | 0.00 | 0.00 | 99 | 1026.3 |
| 20260830160324 | 60 | 105 | 2.0 | 2.0 | 0.00 | 0.00 | 0.00 | 99 | 1026.3 |
| 20260830155820 | 60 | 105 | 2.0 | 2.0 | 0.00 | 0.00 | 0.00 | 99 | 1026.3 |
| 20260830155316 | 60 | 81 | 6.0 | 7.0 | 0.00 | 0.00 | 0.00 | 99 | 1026.5 |
| 20260830154816 | 60 | 81 | 6.0 | 7.0 | 0.00 | 0.00 | 0.00 | 99 | 1026.5 |
| 20260830154312 | 60 | 86 | 5.0 | 7.0 | 0.00 | 0.00 | 0.00 | 99 | 1026.6 |
| 20260830153808 | 60 | 86 | 5.0 | 7.0 | 0.00 | 0.00 | 0.00 | 99 | 1026.6 |
| 20260830153304 | 60 | 104 | 9.0 | 9.0 | 0.00 | 0.00 | 0.00 | 99 | 1026.5 |
| 20260830152802 | 60 | 104 | 9.0 | 9.0 | 0.00 | 0.00 | 0.00 | 99 | 1026.5 |
| 20260830152257 | 60 | 67 | 6.0 | 7.0 | 0.00 | 0.00 | 0.00 | 99 | 1026.7 |
| 20260830151756 | 60 | 67 | 6.0 | 7.0 | 0.00 | 0.00 | 0.00 | 99 | 1026.7 |
| 20260830151256 | 59 | 77 | 4.0 | 6.0 | 0.00 | 0.00 | 0.00 | 99 | 1027.2 |
| 20260830150751 | 59 | 77 | 4.0 | 6.0 | 0.00 | 0.00 | 0.00 | 99 | 1027.2 |
| 20260830150251 | 59 | 163 | 6.0 | 7.0 | 0.00 | 0.00 | 0.00 | 99 | 1027.6 |
| 20260830145746 | 59 | 163 | 6.0 | 7.0 | 0.00 | 0.00 | 0.00 | 99 | 1027.6 |
| 20260830145241 | 60 | 117 | 9.0 | 9.0 | 0.00 | 0.00 | 0.00 | 99 | 1027.3 |
| 20260830144736 | 60 | 117 | 9.0 | 9.0 | 0.00 | 0.00 | 0.00 | 99 | 1027.3 |
| 20260830144232 | 61 | 88 | 7.0 | 10.0 | 0.00 | 0.00 | 0.00 | 99 | 1027.2 |
| 20260830143728 | 61 | 88 | 7.0 | 10.0 | 0.00 | 0.00 | 0.00 | 99 | 1027.2 |
| 20260830143226 | 60 | 206 | 7.0 | 9.0 | 0.00 | 0.00 | 0.00 | 99 | 1026.2 |
| 20260830142721 | 60 | 206 | 7.0 | 9.0 | 0.00 | 0.00 | 0.00 | 99 | 1026.2 |
| 20260830142216 | 60 | 158 | 6.0 | 9.0 | 0.00 | 0.00 | 0.00 | 99 | 1026.2 |
| 20260830141711 | 60 | 158 | 6.0 | 9.0 | 0.00 | 0.00 | 0.00 | 99 | 1026.2 |
| 20260830141206 | 60 | 121 | 11.0 | 13.0 | 0.00 | 0.00 | 0.00 | 99 | 1026.2 |
| 20260830140701 | 60 | 121 | 11.0 | 13.0 | 0.00 | 0.00 | 0.00 | 99 | 1026.2 |
| 20260830140156 | 60 | 132 | 9.0 | 9.0 | 0.00 | 0.00 | 0.00 | 99 | 1026.2 |
| 20260830135651 | 60 | 132 | 9.0 | 9.0 | 0.00 | 0.00 | 0.00 | 99 | 1026.2 |
| 20260830135146 | 61 | 99 | 7.0 | 10.0 | 0.00 | 0.00 | 0.00 | 99 | 1026.1 |
| 20260830134642 | 61 | 99 | 7.0 | 10.0 | 0.00 | 0.00 | 0.00 | 99 | 1026.1 |
| 20260830134137 | 61 | 138 | 6.0 | 8.0 | 0.00 | 0.00 | 0.00 | 99 | 1025.7 |
| 20260830133633 | 61 | 138 | 6.0 | 8.0 | 0.00 | 0.00 | 0.00 | 99 | 1025.7 |
| 20260830133128 | 60 | 113 | 7.0 | 8.0 | 0.00 | 0.00 | 0.00 | 99 | 1025.8 |
| 20260830132624 | 60 | 113 | 7.0 | 8.0 | 0.00 | 0.00 | 0.00 | 99 | 1025.8 |
| 20260830132119 | 61 | 74 | 5.0 | 6.0 | 0.00 | 0.00 | 0.00 | 99 | 1025.8 |
| 20260830131618 | 61 | 74 | 5.0 | 6.0 | 0.00 | 0.00 | 0.00 | 99 | 1025.8 |
| 20260830131113 | 60 | 345 | 4.0 | 6.0 | 0.00 | 0.00 | 0.00 | 99 | 1025.6 |
| 20260830130608 | 60 | 345 | 4.0 | 6.0 | 0.00 | 0.00 | 0.00 | 99 | 1025.6 |
| 20260830125557 | 60 | 83 | 3.0 | 4.0 | 0.00 | 0.00 | 0.00 | 99 | 1025.5 |
| 20260830125056 | 60 | 83 | 3.0 | 4.0 | 0.00 | 0.00 | 0.00 | 99 | 1025.5 |
| 20260830124555 | 60 | 17 | 3.0 | 4.0 | 0.00 | 0.00 | 0.00 | 99 | 1025.2 |
| 20260830124051 | 60 | 17 | 3.0 | 4.0 | 0.00 | 0.00 | 0.00 | 99 | 1025.2 |
| 20260830123548 | 60 | 104 | 1.0 | 2.0 | 0.00 | 0.00 | 0.00 | 99 | 1025.5 |
| 20260830123048 | 60 | 104 | 1.0 | 2.0 | 0.00 | 0.00 | 0.00 | 99 | 1025.5 |
| 20260830122545 | 60 | 33 | 4.0 | 4.0 | 0.00 | 0.00 | 0.00 | 99 | 1025.8 |
| 20260830122041 | 60 | 33 | 4.0 | 4.0 | 0.00 | 0.00 | 0.00 | 99 | 1025.8 |
| 20260830121536 | 61 | 349 | 9.0 | 11.0 | 0.00 | 0.00 | 0.00 | 99 | 1025.2 |
| 20260830121036 | 61 | 349 | 9.0 | 11.0 | 0.00 | 0.00 | 0.00 | 99 | 1025.2 |
| 20260830120531 | 60 | 62 | 6.0 | 7.0 | 0.00 | 0.00 | 0.00 | 99 | 1025.5 |
| 20260830120028 | 60 | 62 | 6.0 | 7.0 | 0.00 | 0.00 | 0.00 | 99 | 1025.5 |
| 20260830115524 | 59 | 131 | 10.0 | 11.0 | 0.00 | 0.00 | 0.00 | 99 | 1025.7 |
| 20260830115025 | 59 | 131 | 10.0 | 11.0 | 0.00 | 0.00 | 0.00 | 99 | 1025.7 |
| 20260830114521 | 59 | 165 | 6.0 | 8.0 | 0.00 | 0.00 | 0.00 | 99 | 1025.6 |
| 20260830114016 | 59 | 165 | 6.0 | 8.0 | 0.00 | 0.00 | 0.00 | 99 | 1025.6 |
| 20260830113515 | 60 | 85 | 6.0 | 6.0 | 0.00 | 0.00 | 0.00 | 99 | 1025.6 |
| 20260830113011 | 60 | 85 | 6.0 | 6.0 | 0.00 | 0.00 | 0.00 | 99 | 1025.6 |
| 20260830112508 | 58 | 74 | 7.0 | 8.0 | 0.00 | 0.00 | 0.00 | 99 | 1025.2 |
| 20260830112004 | 58 | 74 | 7.0 | 8.0 | 0.00 | 0.00 | 0.00 | 99 | 1025.2 |
| 20260830111459 | 59 | 104 | 7.0 | 8.0 | 0.00 | 0.00 | 0.00 | 99 | 1025.3 |
| 20260830110955 | 59 | 104 | 7.0 | 8.0 | 0.00 | 0.00 | 0.00 | 99 | 1025.3 |
| 20260830110455 | 59 | 162 | 11.0 | 11.0 | 0.00 | 0.00 | 0.00 | 99 | 1025.0 |
| 20260830105954 | 59 | 162 | 11.0 | 11.0 | 0.00 | 0.00 | 0.00 | 99 | 1025.0 |
| 20260830105450 | 59 | 166 | 9.0 | 10.0 | 0.00 | 0.00 | 0.00 | 99 | 1025.3 |
| 20260830104946 | 59 | 166 | 9.0 | 10.0 | 0.00 | 0.00 | 0.00 | 99 | 1025.3 |
| 20260830104442 | 59 | 99 | 9.0 | 10.0 | 0.00 | 0.00 | 0.00 | 99 | 1024.8 |
| 20260830103937 | 59 | 99 | 9.0 | 10.0 | 0.00 | 0.00 | 0.00 | 99 | 1024.8 |
| 20260830103433 | 59 | 93 | 6.0 | 8.0 | 0.00 | 0.00 | 0.00 | 99 | 1024.8 |
| 20260830102931 | 59 | 93 | 6.0 | 8.0 | 0.00 | 0.00 | 0.00 | 99 | 1024.8 |
| 20260830102421 | 59 | 79 | 6.0 | 8.0 | 0.00 | 0.00 | 0.00 | 99 | 1024.8 |
| 20260830101918 | 59 | 79 | 6.0 | 8.0 | 0.00 | 0.00 | 0.00 | 99 | 1024.8 |
| 20260830101412 | 59 | 79 | 5.0 | 6.0 | 0.00 | 0.00 | 0.00 | 99 | 1025.2 |
| 20260830100912 | 59 | 79 | 5.0 | 6.0 | 0.00 | 0.00 | 0.00 | 99 | 1025.2 |
| 20260830100411 | 60 | 15 | 4.0 | 6.0 | 0.00 | 0.00 | 0.00 | 99 | 1025.3 |
| 20260830095910 | 60 | 15 | 4.0 | 6.0 | 0.00 | 0.00 | 0.00 | 99 | 1025.3 |
| 20260830095406 | 61 | 64 | 9.0 | 14.0 | 0.00 | 0.00 | 0.00 | 99 | 1025.5 |
| 20260830094902 | 61 | 64 | 9.0 | 14.0 | 0.00 | 0.00 | 0.00 | 99 | 1025.5 |
| 20260830094358 | 60 | 76 | 8.0 | 11.0 | 0.00 | 0.00 | 0.00 | 99 | 1025.5 |
| 20260830093853 | 60 | 76 | 8.0 | 11.0 | 0.00 | 0.00 | 0.00 | 99 | 1025.5 |
| 20260830093348 | 60 | 49 | 6.0 | 6.0 | 0.00 | 0.00 | 0.00 | 99 | 1025.3 |
| 20260830092843 | 60 | 49 | 6.0 | 6.0 | 0.00 | 0.00 | 0.00 | 99 | 1025.3 |
| 20260830092339 | 60 | 94 | 7.0 | 9.0 | 0.00 | 0.00 | 0.00 | 99 | 1025.3 |
| 20260830091836 | 60 | 94 | 7.0 | 9.0 | 0.00 | 0.00 | 0.00 | 99 | 1025.3 |
| 20260830091335 | 60 | 71 | 9.0 | 10.0 | 0.00 | 0.00 | 0.00 | 99 | 1025.2 |
| 20260830090834 | 60 | 71 | 9.0 | 10.0 | 0.00 | 0.00 | 0.00 | 99 | 1025.2 |
| 20260830090330 | 60 | 92 | 8.0 | 9.0 | 0.00 | 0.00 | 0.00 | 99 | 1025.3 |
| 20260830085830 | 60 | 92 | 8.0 | 9.0 | 0.00 | 0.00 | 0.00 | 99 | 1025.3 |
| 20260830085326 | 61 | 116 | 12.0 | 15.0 | 0.00 | 0.00 | 0.00 | 99 | 1025.2 |
| 20260830084821 | 61 | 116 | 12.0 | 15.0 | 0.00 | 0.00 | 0.00 | 99 | 1025.2 |
| 20260830084316 | 61 | 88 | 16.0 | 19.0 | 0.00 | 0.00 | 0.00 | 99 | 1025.0 |
| 20260830083811 | 61 | 88 | 16.0 | 19.0 | 0.00 | 0.00 | 0.00 | 99 | 1025.0 |
| 20260830083308 | 61 | 72 | 14.0 | 19.0 | 0.00 | 0.00 | 0.00 | 99 | 1025.0 |
| 20260830082806 | 61 | 72 | 14.0 | 19.0 | 0.00 | 0.00 | 0.00 | 99 | 1025.0 |
| 20260830082301 | 61 | 122 | 17.0 | 21.0 | 0.00 | 0.00 | 0.00 | 99 | 1025.2 |
| 20260830081757 | 61 | 122 | 17.0 | 21.0 | 0.00 | 0.00 | 0.00 | 99 | 1025.2 |
| 20260830081251 | 61 | 85 | 17.0 | 21.0 | 0.00 | 0.00 | 0.00 | 99 | 1025.2 |
| 20260830080745 | 61 | 85 | 17.0 | 21.0 | 0.00 | 0.00 | 0.00 | 99 | 1025.2 |
| 20260830080242 | 61 | 50 | 11.0 | 15.0 | 0.00 | 0.00 | 0.00 | 99 | 1025.3 |
| 20260830075741 | 61 | 50 | 11.0 | 15.0 | 0.00 | 0.00 | 0.00 | 99 | 1025.3 |
| 20260830075237 | 61 | 66 | 13.0 | 16.0 | 0.00 | 0.00 | 0.00 | 99 | 1025.5 |
| 20260830074732 | 61 | 66 | 13.0 | 16.0 | 0.00 | 0.00 | 0.00 | 99 | 1025.5 |
| 20260830074228 | 61 | 39 | 4.0 | 6.0 | 0.00 | 0.00 | 0.00 | 99 | 1025.3 |
| 20260830073724 | 61 | 39 | 4.0 | 6.0 | 0.00 | 0.00 | 0.00 | 99 | 1025.3 |
| 20260830073219 | 61 | 69 | 15.0 | 19.0 | 0.00 | 0.00 | 0.00 | 99 | 1025.5 |
| 20260830072719 | 61 | 69 | 15.0 | 19.0 | 0.00 | 0.00 | 0.00 | 99 | 1025.5 |
| 20260830072214 | 61 | 77 | 15.0 | 17.0 | 0.00 | 0.00 | 0.00 | 99 | 1025.3 |
| 20260830071709 | 61 | 77 | 15.0 | 17.0 | 0.00 | 0.00 | 0.00 | 99 | 1025.3 |
| 20260830071208 | 62 | 39 | 9.0 | 13.0 | 0.00 | 0.00 | 0.00 | 99 | 1025.5 |
| 20260830070702 | 62 | 39 | 9.0 | 13.0 | 0.00 | 0.00 | 0.00 | 99 | 1025.5 |
| 20260830070157 | 62 | 124 | 10.0 | 13.0 | 0.00 | 0.00 | 0.00 | 99 | 1025.6 |
| 20260830065656 | 62 | 124 | 10.0 | 13.0 | 0.00 | 0.00 | 0.00 | 99 | 1025.6 |
| 20260830065155 | 62 | 25 | 21.0 | 27.0 | 0.00 | 0.00 | 0.00 | 99 | 1024.6 |
| 20260830064654 | 62 | 25 | 21.0 | 27.0 | 0.00 | 0.00 | 0.00 | 99 | 1024.6 |
| 20260830064149 | 63 | 75 | 15.0 | 19.0 | 0.00 | 0.00 | 0.00 | 99 | 1024.6 |
| 20260830063649 | 63 | 75 | 15.0 | 19.0 | 0.00 | 0.00 | 0.00 | 99 | 1024.6 |
| 20260830063144 | 63 | 83 | 17.0 | 34.0 | 0.00 | 0.00 | 0.00 | 99 | 1024.6 |
| 20260830062638 | 63 | 83 | 17.0 | 34.0 | 0.00 | 0.00 | 0.00 | 99 | 1024.6 |
| 20260830062133 | 63 | 39 | 14.0 | 18.0 | 0.00 | 0.00 | 0.00 | 99 | 1024.5 |
| 20260830061627 | 63 | 39 | 14.0 | 18.0 | 0.00 | 0.00 | 0.00 | 99 | 1024.5 |
| 20260830061124 | 64 | 66 | 12.0 | 16.0 | 0.00 | 0.00 | 0.00 | 99 | 1024.3 |
| 20260830060620 | 64 | 66 | 12.0 | 16.0 | 0.00 | 0.00 | 0.00 | 99 | 1024.3 |
| 20260830060116 | 64 | 77 | 15.0 | 17.0 | 0.00 | 0.12 | 0.12 | 99 | 1024.6 |
| 20260830055611 | 64 | 77 | 15.0 | 17.0 | 0.00 | 0.12 | 0.12 | 99 | 1024.6 |
| 20260830055107 | 62 | 80 | 9.0 | 11.0 | 0.00 | 0.12 | 0.12 | 99 | 1025.2 |
| 20260830054608 | 62 | 80 | 9.0 | 11.0 | 0.00 | 0.12 | 0.12 | 99 | 1025.2 |
| 20260830054103 | 62 | 92 | 24.0 | 27.0 | 0.00 | 0.12 | 0.12 | 99 | 1025.2 |
| 20260830053558 | 62 | 92 | 24.0 | 27.0 | 0.00 | 0.12 | 0.12 | 99 | 1025.2 |
| 20260830053058 | 62 | 103 | 14.0 | 16.0 | 0.00 | 0.12 | 0.12 | 99 | 1025.5 |
| 20260830052554 | 62 | 103 | 14.0 | 16.0 | 0.00 | 0.12 | 0.12 | 99 | 1025.5 |
| 20260830052054 | 62 | 69 | 11.0 | 13.0 | 0.00 | 0.12 | 0.12 | 99 | 1025.2 |
| 20260830051548 | 62 | 69 | 11.0 | 13.0 | 0.00 | 0.12 | 0.12 | 99 | 1025.2 |
| 20260830051045 | 60 | 51 | 11.0 | 13.0 | 0.00 | 0.12 | 0.12 | 99 | 1025.7 |
| 20260830050539 | 60 | 51 | 11.0 | 13.0 | 0.00 | 0.12 | 0.12 | 99 | 1025.7 |
| 20260830050038 | 60 | 76 | 13.0 | 16.0 | 0.00 | 0.12 | 0.12 | 99 | 1026.0 |
| 20260830045537 | 60 | 76 | 13.0 | 16.0 | 0.00 | 0.12 | 0.12 | 99 | 1026.0 |
| 20260830045033 | 60 | 82 | 19.0 | 24.0 | 0.00 | 0.12 | 0.12 | 99 | 1025.7 |
| 20260830044532 | 60 | 82 | 19.0 | 24.0 | 0.00 | 0.12 | 0.12 | 99 | 1025.7 |
| 20260830044027 | 61 | 91 | 21.0 | 25.0 | 0.00 | 0.12 | 0.12 | 99 | 1025.7 |
| 20260830043523 | 61 | 91 | 21.0 | 25.0 | 0.00 | 0.12 | 0.12 | 99 | 1025.7 |
| 20260830043021 | 60 | 72 | 9.0 | 11.0 | 0.00 | 0.12 | 0.12 | 99 | 1026.2 |
| 20260830042519 | 60 | 72 | 9.0 | 11.0 | 0.00 | 0.12 | 0.12 | 99 | 1026.2 |
| 20260830042014 | 60 | 119 | 11.0 | 14.0 | 0.00 | 0.12 | 0.12 | 99 | 1026.6 |
| 20260830041514 | 60 | 134 | 14.0 | 16.0 | 0.00 | 0.12 | 0.12 | 99 | 1026.5 |
| 20260830041008 | 60 | 134 | 14.0 | 16.0 | 0.00 | 0.12 | 0.12 | 99 | 1026.5 |
| 20260830040503 | 60 | 64 | 13.0 | 16.0 | 0.00 | 0.12 | 0.12 | 99 | 1026.6 |
| 20260830040003 | 60 | 64 | 13.0 | 16.0 | 0.00 | 0.12 | 0.12 | 99 | 1026.6 |
| 20260830035502 | 60 | 88 | 24.0 | 27.0 | 0.00 | 0.12 | 0.12 | 99 | 1027.1 |
| 20260830034958 | 60 | 88 | 24.0 | 27.0 | 0.00 | 0.12 | 0.12 | 99 | 1027.1 |
| 20260830034454 | 61 | 79 | 16.0 | 19.0 | 0.00 | 0.12 | 0.12 | 99 | 1027.0 |
| 20260830033953 | 61 | 79 | 16.0 | 19.0 | 0.00 | 0.12 | 0.12 | 99 | 1027.0 |
| 20260830033448 | 60 | 104 | 15.0 | 17.0 | 0.05 | 0.12 | 0.12 | 99 | 1027.0 |
| 20260830032943 | 60 | 104 | 15.0 | 17.0 | 0.05 | 0.12 | 0.12 | 99 | 1027.0 |
| 20260830032442 | 60 | 90 | 13.0 | 15.0 | 0.00 | 0.11 | 0.11 | 99 | 1027.3 |
| 20260830031937 | 60 | 90 | 13.0 | 15.0 | 0.00 | 0.11 | 0.11 | 99 | 1027.3 |
| 20260830031428 | 61 | 37 | 10.0 | 11.0 | 0.00 | 0.11 | 0.11 | 99 | 1027.2 |
| 20260830030923 | 61 | 37 | 10.0 | 11.0 | 0.00 | 0.11 | 0.11 | 99 | 1027.2 |
| 20260830030419 | 61 | 52 | 13.0 | 17.0 | 0.00 | 0.11 | 0.11 | 99 | 1027.1 |
| 20260830025918 | 61 | 52 | 13.0 | 17.0 | 0.00 | 0.11 | 0.11 | 99 | 1027.1 |
| 20260830025418 | 61 | 104 | 12.0 | 15.0 | 0.00 | 0.11 | 0.11 | 99 | 1027.0 |
| 20260830024917 | 61 | 104 | 12.0 | 15.0 | 0.00 | 0.11 | 0.11 | 99 | 1027.0 |
| 20260830024413 | 60 | 85 | 23.0 | 27.0 | 0.00 | 0.11 | 0.11 | 99 | 1026.6 |
| 20260830023910 | 60 | 85 | 23.0 | 27.0 | 0.00 | 0.11 | 0.11 | 99 | 1026.6 |
| 20260830023408 | 60 | 77 | 21.0 | 30.0 | 0.00 | 0.11 | 0.11 | 99 | 1026.2 |
| 20260830022908 | 60 | 77 | 21.0 | 30.0 | 0.00 | 0.11 | 0.11 | 99 | 1026.2 |
| 20260830022403 | 59 | 75 | 19.0 | 22.0 | 0.00 | 0.11 | 0.11 | 99 | 1026.5 |
| 20260830021903 | 59 | 75 | 19.0 | 22.0 | 0.00 | 0.11 | 0.11 | 99 | 1026.5 |
| 20260830021358 | 58 | 78 | 10.0 | 13.0 | 0.00 | 0.11 | 0.11 | 99 | 1026.6 |
| 20260830020858 | 58 | 78 | 10.0 | 13.0 | 0.00 | 0.11 | 0.11 | 99 | 1026.6 |
| 20260830020352 | 58 | 82 | 13.0 | 15.0 | 0.00 | 0.11 | 0.11 | 99 | 1026.6 |
| 20260830015848 | 58 | 82 | 13.0 | 15.0 | 0.00 | 0.11 | 0.11 | 99 | 1026.6 |
| 20260830015343 | 57 | 89 | 14.0 | 16.0 | 0.00 | 0.11 | 0.11 | 99 | 1027.0 |
| 20260830014838 | 57 | 89 | 14.0 | 16.0 | 0.00 | 0.11 | 0.11 | 99 | 1027.0 |
| 20260830014335 | 57 | 86 | 19.0 | 24.0 | 0.00 | 0.11 | 0.11 | 99 | 1027.1 |
| 20260830013830 | 57 | 86 | 19.0 | 24.0 | 0.00 | 0.11 | 0.11 | 99 | 1027.1 |
| 20260830013324 | 57 | 143 | 19.0 | 22.0 | 0.00 | 0.11 | 0.11 | 99 | 1027.0 |
| 20260830012820 | 57 | 143 | 19.0 | 22.0 | 0.00 | 0.11 | 0.11 | 99 | 1027.0 |
| 20260830012316 | 57 | 91 | 10.0 | 10.0 | 0.00 | 0.11 | 0.11 | 99 | 1027.5 |
| 20260830011812 | 57 | 91 | 10.0 | 10.0 | 0.00 | 0.11 | 0.11 | 99 | 1027.5 |
| 20260830011307 | 56 | 85 | 23.0 | 29.0 | 0.00 | 0.11 | 0.11 | 99 | 1027.8 |
| 20260830010802 | 56 | 85 | 23.0 | 29.0 | 0.00 | 0.11 | 0.11 | 99 | 1027.8 |
| 20260830010301 | 56 | 123 | 22.0 | 25.0 | 0.00 | 0.11 | 0.11 | 99 | 1028.1 |